Theta_e
306 306 305 305 306 306 306 306 307 310 307 308 307 307 306 305 305 305 305 305 308 305 302 303 301 300 299 298 295 290 288 288 287 287 286 286 285 285 284 284 284 284 284 285
309 305 305 307 306 306 305 305 305 305 306 306 306 305 306 307 307 307 307 306 306 307 304 301 300 298 296 296 294 290 288 288 288 287 286 285 284 284 284 284 284 284 284 284
306 306 306 307 309 307 306 306 306 306 307 306 307 307 306 308 307 308 308 307 307 306 304 300 298 297 296 293 291 289 290 289 288 287 286 285 283 283 283 284 283 283 283 284
308 307 308 307 306 305 305 305 305 306 306 307 307 307 307 306 307 308 308 308 306 304 301 299 298 297 295 292 291 294 288 288 288 286 286 284 283 284 284 284 284 284 283 284
308 306 306 306 305 305 305 306 307 308 309 310 310 309 309 309 309 310 310 307 304 304 301 298 296 295 293 292 293 288 288 290 287 286 285 284 283 284 284 283 283 283 283 283
309 309 306 305 305 306 307 307 309 310 310 311 310 313 312 308 307 307 306 304 303 302 299 297 295 293 291 291 289 288 290 288 287 286 285 284 284 284 283 283 282 282 282 282
307 307 305 305 305 306 306 306 308 308 309 310 312 311 308 305 305 305 304 302 302 300 298 297 294 292 292 292 290 290 289 287 286 286 285 285 284 284 283 282 282 282 281 281
306 306 305 304 306 306 307 306 306 307 307 308 309 309 307 305 305 304 302 302 300 298 296 295 293 293 293 292 291 289 288 287 287 286 285 285 284 284 284 283 282 281 281 280
306 304 306 306 306 305 305 304 306 307 307 308 309 309 307 305 303 302 301 300 300 297 295 294 293 293 292 291 290 289 288 287 287 286 285 285 284 284 283 283 282 282 281 281
305 304 305 304 305 306 305 305 306 305 306 307 309 309 308 304 303 301 300 298 297 296 295 294 293 293 292 290 289 289 288 288 287 286 285 285 285 284 284 284 284 283 282 281
305 306 305 305 304 305 305 306 307 306 306 308 308 309 307 304 302 301 299 297 296 295 294 294 292 291 290 289 289 288 288 287 287 286 285 285 285 285 285 284 284 284 283 281
306 304 305 304 303 303 302 304 307 306 305 306 305 306 304 303 301 300 298 297 295 294 293 291 290 290 289 289 289 288 288 287 287 286 286 285 285 285 284 284 282 281 281 281
303 301 301 301 302 301 301 302 303 305 305 303 303 304 303 302 300 299 297 296 294 293 291 290 289 290 289 289 289 288 288 287 287 286 286 285 285 284 284 283 282 281 281 281
300 300 300 300 300 300 301 303 303 302 303 304 307 303 302 301 299 297 297 296 294 293 292 291 290 290 289 288 288 288 288 287 287 286 285 285 284 285 284 283 282 282 282 281
300 300 300 300 301 301 302 302 302 304 305 305 304 303 302 300 299 297 296 295 295 293 292 291 290 289 289 289 288 288 287 287 285 284 284 283 283 283 283 283 283 282 281 281
300 301 301 301 301 301 302 304 304 304 304 304 303 302 301 300 298 296 296 296 294 293 292 291 291 290 289 289 288 288 287 287 286 285 284 284 284 284 283 283 283 282 282 281
301 301 301 301 302 302 302 303 303 304 304 304 303 303 301 299 297 297 296 294 293 293 293 292 291 290 289 289 289 288 288 287 286 285 285 285 284 284 284 283 283 282 282 281
302 302 302 302 302 302 303 303 302 303 303 302 302 302 300 299 298 297 294 293 293 292 291 291 290 290 289 289 289 288 288 287 286 286 285 285 285 285 284 283 283 282 282 281
303 303 303 303 302 302 302 301 301 301 301 301 300 298 299 298 297 296 293 292 292 291 291 291 290 290 289 289 288 288 287 287 286 286 286 285 285 284 283 283 282 281 281 279
303 303 304 303 303 303 303 302 302 302 301 300 300 299 298 297 297 296 295 293 292 292 291 291 290 290 289 288 288 287 287 286 286 286 285 284 284 283 282 282 281 280 280 279
301 302 303 303 303 303 303 302 302 301 300 299 300 299 298 296 296 295 294 294 293 292 291 290 290 289 289 288 287 287 286 286 285 284 283 282 282 282 281 280 280 280 279 279
300 300 301 302 302 303 302 301 299 299 299 298 298 297 297 296 295 293 293 292 291 291 290 289 289 288 288 287 287 286 286 285 284 282 282 282 281 281 280 280 279 279 278 278
299 299 299 299 299 301 299 298 298 298 298 297 296 295 294 294 293 293 291 291 291 290 289 289 289 287 287 286 286 285 285 283 282 282 282 282 281 280 279 279 278 278 277 277
298 298 298 298 298 297 298 297 297 296 296 295 294 294 294 294 293 291 291 291 290 289 289 289 288 286 286 285 285 284 282 281 281 281 281 280 280 279 279 278 277 277 276 275
297 297 297 297 296 296 296 296 295 295 295 295 294 293 292 292 292 291 291 290 289 289 288 287 286 285 285 284 283 282 281 281 281 280 280 279 279 278 277 277 276 275 275 273
296 296 296 296 295 295 295 295 294 294 294 293 293 292 291 291 290 290 289 289 289 288 287 286 285 284 283 283 282 281 281 280 280 279 279 278 278 277 276 275 274 273 271 270
295 295 295 295 295 294 294 293 293 293 292 292 292 291 290 290 289 289 289 288 287 286 286 285 284 283 283 282 281 280 280 279 279 278 278 277 277 276 274 272 271 271 270 270
Wind_Speed
15 13 11 14 18 18 20 21 19 24 23 29 23 17 21 26 27 26 24 21 21 23 27 33 36 32 31 29 25 22 21 17 16 13 11 10 9 9 9 8 8 8 8 8
4 10 12 15 17 16 21 23 22 25 32 19 28 26 19 18 17 16 16 17 21 24 25 28 33 32 29 29 27 24 22 18 16 15 13 11 11 11 10 10 9 9 8 8
18 16 13 16 14 20 22 21 20 22 24 18 17 16 19 15 15 16 15 12 15 22 24 25 27 31 30 28 27 27 23 20 18 17 14 13 13 12 12 11 10 10 9 8
7 10 15 16 7 11 15 14 14 18 19 19 22 23 21 18 18 15 12 10 10 15 19 21 24 28 28 28 28 25 25 23 19 18 16 15 15 14 13 11 10 9 9 8
7 13 17 15 14 16 17 15 13 10 9 12 12 12 13 4 5 6 5 6 8 13 16 20 25 28 29 28 27 28 26 21 21 19 18 17 16 15 14 12 11 10 9 9
6 5 7 4 5 5 4 11 6 5 6 8 7 5 4 3 1 3 7 8 9 12 16 21 25 27 29 30 30 29 24 22 21 20 18 18 17 16 14 13 12 11 10 9
11 10 9 5 7 5 10 4 2 8 10 10 8 6 5 3 2 6 8 10 11 13 17 21 25 28 29 31 31 23 21 22 21 19 18 18 18 16 15 14 13 12 10 8
8 11 14 7 4 11 4 12 14 15 15 15 14 10 6 5 5 7 10 12 12 15 17 21 24 26 28 29 23 23 22 22 21 19 18 19 18 17 15 15 14 11 9 7
5 5 4 5 7 9 10 12 13 15 19 17 18 12 8 7 9 10 11 12 13 15 18 20 22 23 24 23 24 24 23 22 21 19 18 18 18 17 15 15 12 11 9 8
11 11 16 19 18 15 16 14 10 7 16 20 18 13 10 10 12 12 13 13 14 16 18 20 21 21 21 24 25 25 23 22 21 19 18 17 16 15 14 14 12 11 10 9
13 16 19 17 25 22 15 12 14 10 12 19 14 15 12 13 14 14 15 15 15 15 17 20 21 21 22 24 25 24 22 21 20 18 19 17 16 15 14 14 12 11 10 10
11 16 13 21 21 16 14 14 15 13 10 15 10 13 14 14 15 16 16 17 17 16 17 20 21 22 22 23 23 22 21 20 19 18 18 17 16 15 19 15 13 13 11 8
21 22 20 23 20 18 19 20 20 15 12 19 15 12 14 14 15 16 17 18 18 19 19 21 21 21 21 22 22 21 19 18 18 17 18 18 17 15 13 17 14 13 11 9
25 22 22 23 19 16 15 15 14 17 17 14 11 12 14 13 15 16 18 19 18 20 20 21 21 21 22 22 21 19 17 19 17 19 19 18 16 15 14 13 14 13 12 10
24 21 23 20 16 18 18 18 16 13 10 10 14 16 16 16 16 17 17 19 20 20 21 21 21 22 23 22 21 19 18 17 17 18 18 17 16 15 14 13 12 11 11 12
16 12 12 16 19 20 15 12 11 11 11 12 15 17 16 14 15 18 20 21 23 24 23 22 23 21 22 22 20 18 16 14 15 17 18 18 16 16 16 15 14 13 12 11
19 22 22 23 21 19 20 18 15 12 11 15 19 21 19 17 18 21 21 19 20 22 22 20 19 20 21 21 20 18 17 15 15 16 16 17 17 17 16 16 14 13 13 14
17 18 17 17 16 13 11 11 12 10 12 14 20 22 21 20 23 25 23 21 21 21 20 19 17 17 19 19 19 18 18 16 15 16 15 16 16 16 15 13 13 13 13 16
2 4 4 6 8 8 5 5 7 10 13 16 17 16 14 16 19 23 23 23 22 21 20 20 19 17 17 18 18 17 17 16 16 15 15 15 16 15 15 14 11 11 12 11
3 2 3 5 8 10 9 7 6 9 12 13 14 14 16 18 20 23 23 23 21 20 18 19 20 18 18 18 19 18 17 16 15 15 14 14 14 14 12 11 10 10 12 12
5 3 3 4 8 8 11 8 5 8 11 13 15 18 19 19 20 19 21 21 19 19 18 18 19 19 19 19 19 18 17 16 15 14 14 14 13 10 9 9 10 11 13 14
3 1 3 5 6 10 13 10 9 11 11 12 14 17 20 21 19 18 18 18 18 17 17 17 17 17 16 17 17 16 15 14 14 13 13 12 10 10 11 11 11 12 13 13
3 5 6 7 7 10 12 12 11 10 10 11 14 18 19 20 19 19 19 18 17 17 16 15 15 16 16 16 15 14 14 13 13 12 12 11 12 11 10 11 12 12 11 12
3 4 4 5 7 8 10 11 12 12 13 14 14 15 15 17 17 16 16 17 16 15 14 14 15 15 15 14 13 13 13 13 13 13 13 12 12 11 11 10 11 11 12 13
6 6 6 7 7 7 8 11 12 13 14 14 15 15 16 17 16 17 16 16 15 14 14 14 13 13 13 12 12 12 12 12 13 12 11 11 10 9 9 10 11 12 13 14
7 7 9 9 8 8 10 12 12 13 13 15 16 16 16 15 13 15 16 15 14 13 13 13 13 12 12 12 12 12 12 11 11 10 9 9 8 8 9 11 12 13 13 13
9 10 11 11 10 11 12 12 12 13 14 14 15 16 16 15 14 14 14 15 14 14 13 13 13 12 11 11 11 11 11 10 10 9 8 7 8 9 11 11 11 12 11 11
Wind_Direction
266 275 276 275 271 270 262 258 256 269 266 273 285 294 288 281 277 275 264 246 227 212 213 216 213 209 206 203 200 195 194 187 191 187 179 176 165 156 145 135 128 121 112 106
256 266 268 269 261 253 261 261 261 262 266 278 288 286 282 277 275 268 260 248 231 219 206 209 207 199 195 195 195 190 181 188 185 186 181 172 163 155 148 141 134 123 117 108
257 256 265 264 250 242 257 253 251 257 272 290 288 283 277 275 286 272 264 258 233 219 209 203 197 191 187 185 186 185 188 181 181 184 178 171 164 156 151 146 143 140 133 124
273 254 255 273 239 254 259 266 263 265 273 280 284 284 279 274 272 271 263 250 217 199 194 192 186 184 181 180 185 190 180 183 183 182 176 172 165 163 159 154 149 147 143 136
241 253 269 247 236 265 263 279 263 269 290 300 304 287 271 259 265 256 243 184 175 192 180 174 176 176 177 179 183 181 183 187 181 181 176 174 170 168 164 161 157 155 149 142
213 240 252 293 144 171 261 267 153 273 323 326 317 281 76 7 256 163 140 146 156 162 161 165 170 173 175 178 181 182 189 181 180 179 178 174 173 170 169 167 168 168 163 161
233 254 269 254 233 227 252 289 359 331 324 319 307 330 313 297 191 158 148 148 155 154 160 166 169 173 176 183 185 183 180 178 179 180 178 182 180 178 172 175 176 180 178 175
238 250 266 225 156 225 337 318 308 308 301 301 288 302 267 232 209 173 160 159 155 154 160 166 170 174 179 186 183 176 177 177 178 178 181 184 183 180 181 187 184 185 186 187
257 268 36 187 239 259 275 290 302 300 299 283 269 275 252 223 186 180 171 168 166 164 164 167 172 176 177 178 175 175 175 176 177 179 184 186 187 182 183 186 188 191 192 192
267 253 255 256 280 275 277 270 229 297 306 283 258 256 244 208 186 180 176 172 170 170 169 168 172 176 178 174 173 173 175 176 178 179 181 184 185 190 191 192 195 196 196 193
261 264 268 280 278 279 282 260 250 281 302 291 250 251 229 199 186 183 178 179 178 175 174 172 170 169 173 171 172 173 176 178 180 183 185 187 190 196 199 204 202 205 210 212
254 257 243 268 276 285 285 272 257 281 304 322 279 240 199 188 184 182 181 181 176 175 173 170 169 170 171 173 175 176 178 181 184 185 185 189 192 199 202 207 210 216 223 228
256 266 275 276 278 276 275 275 272 265 274 316 261 218 188 182 181 181 178 181 180 178 173 172 171 172 175 177 179 181 184 185 190 187 189 191 195 199 204 213 217 218 223 224
264 273 275 268 266 274 272 265 269 276 277 252 261 202 184 178 181 179 182 181 177 178 177 175 174 177 182 184 181 185 186 193 194 190 193 196 198 199 200 207 215 219 219 224
267 263 257 268 279 280 277 271 268 262 253 218 200 196 188 182 183 180 176 177 179 178 180 179 179 186 189 188 190 193 199 202 204 205 208 209 207 205 205 207 204 207 218 227
263 271 251 247 275 274 268 255 268 273 236 210 193 188 186 182 177 176 178 180 181 181 181 184 189 191 190 190 190 189 192 198 203 204 204 205 206 207 214 217 215 216 220 225
264 263 262 267 267 262 252 254 266 267 228 204 196 187 182 179 177 176 177 183 188 187 184 183 185 188 190 191 192 193 197 197 198 201 205 209 214 219 225 229 228 227 229 227
255 265 269 266 263 256 251 247 256 235 210 195 192 188 184 184 183 177 176 171 170 175 177 177 180 184 188 192 195 201 203 204 203 206 211 220 228 231 231 227 228 227 225 238
338 295 288 269 247 233 222 148 145 180 181 188 175 170 175 185 181 176 172 170 170 174 179 183 186 187 190 191 197 203 205 207 210 216 226 234 236 235 233 230 219 220 219 222
29 90 63 97 116 137 142 164 175 151 141 142 144 154 168 177 180 181 182 181 182 186 186 189 188 190 193 195 199 204 207 213 220 228 233 233 226 223 220 215 212 212 217 227
10 39 159 181 160 157 154 156 168 179 177 185 191 188 184 177 177 182 185 187 187 184 182 187 192 194 196 198 201 208 212 217 224 231 227 219 215 204 204 208 212 222 226 231
3 50 146 155 160 177 175 171 162 162 161 168 173 180 177 173 172 175 179 182 178 178 182 188 193 197 200 200 208 209 214 222 227 221 214 208 203 204 210 217 222 228 234 242
95 104 105 108 134 158 165 154 159 162 165 164 164 165 167 167 169 174 176 174 179 182 186 192 195 196 200 205 208 215 222 223 218 211 208 205 208 212 220 227 231 234 238 242
174 158 144 141 144 147 155 157 161 159 158 157 162 166 173 174 173 177 177 178 179 184 190 193 194 196 201 207 214 217 214 210 209 210 212 218 219 225 230 235 237 244 251 258
200 194 183 171 166 169 169 166 163 162 165 170 171 171 176 179 187 180 180 181 183 189 190 189 192 197 204 207 207 206 205 206 208 210 213 218 220 227 236 247 255 260 265 266
219 206 200 192 192 189 182 175 176 175 176 177 175 175 176 178 179 182 180 185 189 188 189 191 194 198 202 204 204 201 201 202 204 206 208 214 227 242 257 266 268 268 268 268
238 223 210 205 200 192 187 186 184 181 180 180 180 174 176 177 178 181 183 184 186 187 191 193 194 196 197 198 196 195 196 197 196 202 215 230 250 269 275 273 271 270 268 266